COSMOS 2251 DEB, 33793

Orbit data source: Space-Track

COSMOS 2251 DEB, 33793 is space debris in LEO originally from a launch on Wed, 16 Jun 1993 UTC launched from the Plesetsk Missile And Space Complex (PKMTR). The debris from Iridium 33, an American commercial communications satellite, has been tracked extensively since its accidental collision with the defunct Russian satellite Cosmos 2251 in 2009. This event, occurring at high speed in low Earth orbit (LEO), generated thousands of pieces of space debris, significantly increasing the risk of further collisions. The Iridium 33 debris cloud has impacted space traffic management and orbital debris mitigation strategies, making it a subject of ongoing study in space situational awareness.

Loading next visibility...
Identifier
33793, 1993-036AJ
Orbit
LEO
Country
Flag of CISCIS
Related business
Manufacturer
Unknown
Mission
Spacecraft
Bus & Motor
Unknown
Mass
Unknown
Launch date (UTC)
1993-06-16 (33 years ago)
Launch vehicle
Unknown
Launch site
Plesetsk Missile And Space Complex (PKMTR)
Object type
Payload
Rocket body
Debris
Shape & HBR
Unknown shape, 0.1 m
Radar Cross Section
Small (<0.1 m²)

Expand to show TLE details & history
Last TLE update: 13 hours ago

TLE from 13 hours ago
0 COSMOS 2251 DEB
1 33793U 93036AJ  25352.51544128  .00001396  00000-0  55760-3 0  9998
2 33793  73.9804 139.4203 0078688 288.3802 134.8219 14.27741439872892
Epoch: 2025-12-18T12:22Z
TLE epoch observation values (Epoch: 2025-12-18T12:22:14.126Z)
Latitude
59.72481°
Longitude
-104.21805°
Altitude
849.118 km
Speed
7.413 km/s
True Right ascension
11h 14m 50s
True Declination
59° 34' 36"
Sunlit
Object was in daylight at epoch
Visualization orbit readout
Latitude
Unknown
Longitude
Unknown
Altitude
Unknown
Speed
Unknown
Apparent Right ascension
Unknown
Apparent Declination
Unknown
Sunlit
N/A
Visualization observer readout
Local Sidereal Time
00:35:38
Azimuth
Unknown
Elevation
Unknown
Doppler factor
Unknown
Orbital elements
Apogee altitude
853.387 km
Perigee altitude
740.469 km
Semi-major axis
7,175.065 km
Eccentricity
0.00787
Inclination
73.9804°
RAAN
139.4203°
Arg. of periapsis
288.3802°
True anomaly
135.45706°
Mean anomaly
134.8219°
Eccentric anomaly
135.13992°
Mean motion
3.57112 °/min
Orbital period
100.81 mins
BSTAR
0.0005576
Loading maneuver chart data...
Computing Atmospheric mass density...

Documentation

Showing up to 5 results
|